Location: ????????
(55.1591°N, 39.1782°E)
Time: 05:55:07
(UTC+00:00)

Intercosmos 25 Rocket - Pass Details

Date: 14 April 2024
Orbit: 434 x 2971 km, 82.6° (Epoch: 22 May)

Event Time Altitude Azimuth Distance (km) Brightness Sun altitude
Rises 01:13:21 0° 344° (NNW) 2,433 6.9 -9.6°
Reaches altitude 10° 01:15:15 10° 340° (NNW) 1,580 5.8 -9.4°
Maximum altitude 01:18:25 55° 262° (W) 607 3.2 -9.0°
Drops below altitude 10° 01:22:24 10° 184° (S) 1,995 5.8 -8.5°
Sets 01:25:05 0° 180° (S) 3,174 6.9 -8.2°
